Regional Weather Roundup
Issued by NWS

Home | Current Version | Previous Version | Graphics & Text | Print | Product List | Glossary On
Versions: 1 2 3 4 5 6 7 8 9 10 11 12 13 14 15 16 17 18 19 20 21 22 23 24 25 26 27 28 29 30 31 32 33 34 35 36 37 38 39 40 41 42 43 44 45 46 47 48 49 50
000
ASUS43 KMKX 121920
RWRWI

WISCONSIN REGIONAL WEATHER ROUNDUP
NATIONAL WEATHER SERVICE MILWAUKEE/SULLIVAN WI
100 PM CST TUE DEC 12 2017

NOTE: "FAIR" INDICATES FEW OR NO CLOUDS BELOW 12,000 FEET WITH NO
SIGNIFICANT WEATHER AND/OR OBSTRUCTIONS TO VISIBILITY.

WIZ001-002-006>008-014>016-023>028-122000-
NORTHWEST WISCONSIN

CITY           SKY/WX    TMP DP  RH WIND       PRES   REMARKS
SUPERIOR ARPT  CLOUDY    12   4  67 S6        30.04F WCI   3
ASHLAND        CLOUDY    10   3  73 SW7       30.05F WCI  -1
HAYWARD        CLOUDY    10   0  63 S3        30.03F
SIREN          CLOUDY    12   3  69 CALM      30.05F
CUMBERLAND     CLOUDY    12   1  62 CALM      30.03F
RICE LAKE      CLOUDY    11   1  62 CALM      30.06F
CHETEK         CLOUDY    11  -1  58 CALM      30.06F
LADYSMITH      CLOUDY    13  -1  53 NW7       30.04F WCI   3
EAU CLAIRE     CLOUDY    11   1  64 W8        30.08F WCI  -1
MENOMONIE      CLOUDY    15   1  55 CALM      30.08F
NEW RICHMOND   CLOUDY    15   3  59 CALM      30.07F
OSCEOLA        CLOUDY    15   5  65 CALM      30.10F
$$

WIZ003>005-009-010-017-018-122000-
NORTH CENTRAL WISCONSIN

CITY           SKY/WX    TMP DP  RH WIND       PRES   REMARKS
MANITOWISH WTR CLOUDY     9   2  74 W9        29.95F WCI  -5
ARBOR VITAE    CLOUDY    11   4  72 NW9       29.95F WCI  -1
WOODRUFF       CLOUDY    11   4  72 NW9       29.95F WCI  -1
RHINELANDER    MOSUNNY   12   2  64 NW9       29.94F WCI   0
EAGLE RIVER    CLOUDY    11   1  64 NW12      29.92F WCI  -3
LAND O LAKES   LGT SNOW  12   4  69 NW7       29.93F WCI   2
PHILLIPS       MOSUNNY    9  -1  62 SW5       29.99F WCI   1
TOMAHAWK       SUNNY     11   0  59 W8        29.98F WCI   0
MEDFORD        CLOUDY    11  -1  58 NW8       29.99F WCI  -1
MERRILL        SUNNY     14   0  52 NW9       29.99F WCI   2
$$

WIZ029-030-035-036-043>047-122000-
CENTRAL WISCONSIN

CITY           SKY/WX    TMP DP  RH WIND       PRES   REMARKS
WAUSAU         SUNNY     13   2  61 W10       29.99F WCI   0
MOSINEE        MOSUNNY   12   1  62 NW12      30.01F WCI  -2
MARSHFIELD     CLOUDY    11   0  61 W13       30.01F WCI  -4
STEVENS POINT  SUNNY     12   0  58 W8G16     30.02F WCI   1
WAUPACA        SUNNY     20   4  51 W9G16     30.02F WCI   9
WAUTOMA        SUNNY     16   3  56 NW15      30.05F WCI   1
WISC RAPIDS    CLOUDY    13   1  59 NW8       30.05F WCI   2
CAMP DOUGLAS   PTSUNNY   16   1  53 W12       30.07F WCI   3
$$

WIZ011>013-019>022-031-037>040-048>050-122000-
NORTHEAST WISCONSIN

CITY           SKY/WX    TMP DP  RH WIND       PRES   REMARKS
ANTIGO         PTSUNNY   12   2  65 NW8       29.95F WCI   0
SHAWANO        CLOUDY    19   5  53 NW8       30.00F WCI   9
OCONTO         CLOUDY    17   4  56 NW8       30.00F WCI   7
STURGEON BAY   CLOUDY    15   5  64 NW16      29.99F WCI  -1
GREEN BAY      FLURRIES  18   8  65 NW13      30.01F WCI   5
MANITOWOC      FLURRIES  17   5  59 NW15      30.01F WCI   2
APPLETON       PTSUNNY   18   1  49 NW12      30.00F WCI   5
CLINTONVILLE   NOT AVBL
OSHKOSH        PTSUNNY   18   5  57 NW10G17   30.02F WCI   6
$$

WIZ032>034-041-042-053>061-122000-
SOUTHWEST WISCONSIN

CITY           SKY/WX    TMP DP  RH WIND       PRES   REMARKS
LA CROSSE      CLOUDY    19   3  49 W7        30.12F WCI  10
SPARTA         CLOUDY    17   2  50 W7        30.10F WCI   8
VIROQUA        CLOUDY    16   5  61 W8        30.06F WCI   6
BOSCOBEL       CLOUDY    20   5  52 NW7       30.13F WCI  11
PRAIRIE DU CHI SUNNY     22   1  41 W8        30.12F WCI  12
PLATTEVILLE    MOSUNNY   21   7  54 W10G17    30.09F WCI  10
$$

WIZ056-057-062-063-064-067-068-122000-
SOUTH CENTRAL WISCONSIN

CITY           SKY/WX    TMP DP  RH WIND       PRES   REMARKS
REEDSBURG      CLOUDY    18   0  45 W14G21    30.06F WCI   5
BARABOO/DELLS  CLOUDY    19   0  43 W10       30.04F WCI   7
LONE ROCK      PTSUNNY   20   5  52 NW10      30.10F WCI   9
MINERAL POINT  SUNNY     23   3  42 W12       30.06F WCI  12
MADISON        PTSUNNY   19   4  51 NW7       30.05F WCI  10
MIDDLETON      PTSUNNY   22   2  41 NW10      30.05F WCI  12
WATERTOWN      MOSUNNY   17   6  61 NW12      30.04F WCI   4
MONROE         SUNNY     21   0  39 NW12G18   30.05S WCI   9
JANESVILLE     MOSUNNY   23   5  46 NW13      30.05F WCI  11
$$

WIZ051-052-058>065-066-070>072-122000-
SOUTHEAST WISCONSIN

CITY           SKY/WX    TMP DP  RH WIND       PRES   REMARKS
MILWAUKEE      PTSUNNY   20   5  52 NW16G23   30.03F WCI   6
WAUKESHA       PTSUNNY   18   7  62 NW17      30.04F WCI   2
MILWAUKEE/TIMM PTSUNNY   19   1  45 NW20      30.04F WCI   4
RACINE         PTSUNNY   21   6  52 W12       30.05F WCI   9
BURLINGTON     MOSUNNY   32  24  73 W13       30.03F WCI  22
KENOSHA        PTSUNNY   21   6  52 NW10      30.03F WCI  10
FOND DU LAC    PTSUNNY   18   3  52 NW9       30.03F WCI   7
SHEBOYGAN      CLOUDY    18   6  59 NW15      30.01F WCI   4
WEST BEND      CLOUDY    18   5  57 W13G18    30.01F WCI   4
JUNEAU         PTSUNNY   15   4  60 NW6       30.04F WCI   7
$$

LSZ147-162-122000-
LAKE SUPERIOR

STATION/POSITION TIME  TEMP    WIND        PRES    WAVE
                       AIR SEA DIR/SP/G            HT/PER
                 (UTC) (F)     (DEG/KT/KT) (MB)    (FT/S)
DEVILS ISLAND    1900   13     230/  4/  6 1018.5F
SAXON HARBOR     1830   12                 1017.6F
$$

LMZ867-665-643>646-122000-
LAKE MICHIGAN

STATION/POSITION TIME  TEMP    WIND        PRES    WAVE
                       AIR SEA DIR/SP/G            HT/PER
                 (UTC) (F)     (DEG/KT/KT) (MB)    (FT/S)
NORTHPORT PIER   1835   18     320/ 20     1014.6F
KEWAUNEE LAKESHO 1854   17     330/ 12/ 19 1015.1F
SHEBOYGAN LAKESH 1900   17     300/ 15/ 18 1017.3F
PORT WASHINGTON  1840   20     290/  8/ 14 1017.9S
MILWAUKEE LAKESH 1900   19     310/ 14/ 17   N/A
KENOSHA   LAKESH 1900   20     290/ 12/ 15 1017.3
$$

TC  - TEMPERATURE IN CELSIUS
VSB - VISIBILITY IN STATUTE MILES
WCI - WIND CHILL INDEX
HX  - HEAT INDEX





USA.gov is the U.S. government's official web portal to all federal, state and local government web resources and services.